RH
95 92 85 78 78 80 85 100 96 98 98 98 99 100 100 100 100 100 100 95 92 78 60 51 48 48 49 46 30 16 11 10 12 11 19 20 32 53
92 93 95 88 81 78 88 91 98 90 95 94 93 100 100 100 98 100 99 97 84 76 66 61 56 52 49 38 17 10 9 9 12 13 16 20 20 20
99 99 95 89 85 82 89 89 100 100 100 96 92 99 100 100 98 100 98 90 83 74 66 60 57 55 48 22 11 9 11 12 15 14 13 13 12 22
99 99 99 95 96 88 93 93 92 100 100 100 99 96 100 100 98 94 88 86 82 77 72 68 64 54 24 11 12 14 14 13 13 13 13 13 14 16
100 99 97 94 97 98 97 94 99 100 100 100 92 84 87 90 88 86 80 82 81 78 75 69 50 18 12 14 16 15 14 13 13 13 13 14 14 15
100 100 100 89 92 99 97 99 98 100 100 100 99 94 96 90 90 81 78 74 74 74 57 29 16 16 16 15 14 14 14 14 14 14 14 14 17 19
100 100 99 100 96 98 94 100 100 100 100 100 100 96 98 95 79 75 75 72 67 45 18 17 17 17 17 15 14 14 14 14 14 14 15 20 21 22
99 99 93 97 98 100 99 100 100 99 99 98 100 98 98 98 74 74 68 56 21 17 16 17 16 15 15 16 17 17 16 14 16 17 22 25 25 26
94 91 96 100 99 100 100 97 99 100 100 98 90 89 83 66 63 49 23 17 17 16 16 16 16 18 17 16 14 14 15 17 18 24 26 25 30 29
98 99 100 100 100 100 99 100 99 94 87 63 56 57 41 22 18 18 18 18 18 20 21 22 18 16 15 15 14 15 17 19 25 26 26 27 28 31
100 100 100 100 97 92 72 64 56 51 34 23 18 17 17 18 19 32 36 33 22 22 23 22 23 23 23 19 15 17 22 26 28 30 32 34 36 31
99 85 49 32 28 28 30 27 17 17 18 20 21 23 40 55 43 27 26 28 30 30 29 34 35 36 33 29 21 28 26 28 29 32 38 40 40 36
85 63 36 23 20 21 20 19 21 26 35 40 45 61 46 30 31 34 35 36 37 37 39 41 42 42 44 43 41 41 40 39 35 27 27 35 40 43
45 24 21 22 22 23 28 43 53 45 52 59 44 39 38 35 37 38 39 41 42 43 44 46 48 50 52 51 47 45 45 44 43 34 32 46 49 46
20 22 23 25 33 46 50 41 53 66 56 42 39 38 36 39 41 45 47 50 54 55 55 55 55 57 58 60 60 50 54 50 46 40 47 52 49 44
25 25 35 57 64 53 48 69 62 47 40 41 40 39 41 45 49 51 51 51 59 66 66 60 55 56 56 59 67 56 58 60 45 46 60 54 51 51
28 55 68 59 52 63 60 53 43 38 39 43 45 47 48 51 52 48 42 43 63 70 70 73 65 63 65 67 62 56 58 51 49 57 57 55 52 53
38 56 63 59 60 64 55 39 34 36 38 40 42 44 44 41 38 36 37 40 55 65 68 81 83 76 67 54 60 64 59 60 67 68 69 70 53 50
50 79 94 90 70 43 34 33 34 35 37 38 40 40 40 39 39 38 41 45 49 56 74 87 97 97 95 91 78 72 68 75 74 71 73 70 71 58
66 68 49 38 36 34 34 35 36 38 39 40 41 43 44 45 43 42 46 52 56 68 94 92 95 99 100 100 98 72 73 73 70 73 70 72 70 64
38 40 41 41 41 40 40 40 41 42 45 48 46 46 48 50 46 48 55 64 74 95 96 95 98 100 100 96 95 75 64 64 73 78 76 81 78 76
37 38 38 38 37 36 37 37 35 36 39 45 51 49 51 54 54 62 78 95 95 94 98 99 99 99 94 95 87 78 69 63 61 67 70 77 91 99
38 39 41 42 42 41 39 39 41 47 60 95 84 64 83 96 95 86 90 90 97 96 99 100 94 93 86 82 85 80 82 72 70 66 55 67 74 76
Wind_Speed
33 36 37 35 35 33 34 36 37 20 32 34 33 35 36 34 26 30 24 24 22 22 23 23 24 22 21 21 23 22 21 20 22 21 18 17 17 17
31 32 36 38 34 34 34 32 30 33 33 24 32 35 32 30 31 28 23 22 23 23 24 23 24 23 22 23 23 20 20 20 20 20 18 19 18 19
31 29 30 31 34 28 22 25 26 27 29 23 22 31 28 25 25 23 24 24 24 24 24 24 24 23 22 23 22 20 20 19 19 19 20 19 20 21
30 28 28 32 36 28 24 27 28 25 33 28 24 26 26 23 21 24 23 23 23 23 23 22 23 22 21 21 19 19 18 19 18 19 19 19 20 21
27 27 27 25 23 25 24 27 26 27 31 33 22 18 19 21 25 25 23 21 20 21 21 20 19 19 19 18 18 18 18 18 18 17 18 20 22 21
20 24 25 23 18 25 23 26 24 29 28 24 20 15 16 21 22 23 22 19 18 17 17 17 17 17 16 16 17 18 17 17 18 19 20 22 21 20
20 21 17 19 19 14 26 26 30 27 22 14 14 17 16 19 23 20 18 15 15 15 14 15 15 14 14 16 16 17 17 18 20 22 22 21 21 22
11 7 12 10 16 16 22 14 22 17 19 21 18 13 14 15 18 16 14 14 11 11 12 12 12 13 14 13 16 17 18 20 22 22 20 19 23 23
8 4 6 8 11 15 21 16 17 13 11 10 10 13 14 13 12 12 11 9 9 8 8 9 10 11 13 14 17 19 22 22 21 17 18 22 24 25
10 6 8 11 10 10 13 13 12 9 9 10 9 9 10 11 12 10 8 7 6 7 8 9 10 10 13 17 18 18 18 17 16 16 24 25 27 28
11 10 12 12 11 9 11 14 15 14 14 14 14 13 13 12 10 7 5 4 5 6 8 9 10 13 14 14 13 12 10 12 18 26 28 27 30 31
15 15 13 13 13 12 8 11 16 18 17 17 16 15 12 8 6 5 4 2 3 5 5 11 13 14 11 10 8 19 19 22 24 24 28 30 30 31
14 17 16 15 17 16 14 14 16 19 17 14 13 10 8 7 5 3 1 2 5 8 10 13 15 16 16 18 21 19 20 23 26 27 26 27 28 24
17 17 18 18 19 18 18 16 14 14 13 10 8 7 5 5 4 1 2 4 7 10 13 15 17 17 20 24 26 27 28 29 31 32 27 23 26 29
18 19 19 19 19 17 14 13 12 8 6 5 4 3 4 3 2 3 4 6 9 13 15 17 19 21 22 25 28 31 34 35 30 31 31 29 30 29
17 18 18 16 13 11 11 7 5 4 4 4 4 4 5 5 6 7 9 11 12 15 17 19 20 22 24 25 27 32 30 34 35 32 32 32 33 33
15 16 12 10 9 6 4 4 5 4 4 5 6 7 8 9 11 13 14 15 17 18 20 21 22 22 23 26 31 31 32 33 30 26 29 34 34 34
10 7 6 5 4 4 6 6 5 6 8 9 10 12 13 15 16 18 18 19 21 21 24 26 28 27 29 31 29 30 33 29 29 29 30 34 38 34
5 3 3 4 8 8 8 9 9 11 13 14 15 16 17 19 20 20 21 22 23 24 26 28 28 25 29 33 37 30 29 34 33 34 32 31 36 35
4 6 8 9 9 10 11 12 13 15 17 18 19 20 20 21 22 22 22 23 24 26 28 27 27 25 26 30 35 38 30 32 31 33 33 33 34 33
6 7 8 10 11 13 14 16 17 18 20 21 22 22 22 23 24 24 23 24 26 29 29 29 25 24 27 31 34 37 33 24 26 31 33 36 37 37
8 10 12 14 15 17 18 18 19 19 19 22 23 24 24 25 26 26 26 26 29 27 28 27 24 24 26 27 30 31 33 30 26 28 30 31 32 31
10 12 13 15 16 18 19 21 21 21 21 26 22 24 26 26 24 24 24 24 24 25 26 27 27 26 26 23 26 31 34 34 35 35 33 31 32 33
Wind_Direction
246 243 244 244 249 251 256 235 240 235 236 238 232 233 229 220 220 235 244 251 252 249 247 253 260 262 263 267 268 270 271 270 271 278 276 280 282 279
245 245 242 241 242 243 247 260 251 246 248 241 251 242 229 230 239 242 247 250 250 250 250 253 258 263 268 271 272 272 274 276 275 275 277 278 281 281
243 240 243 237 242 247 245 249 244 236 236 245 235 238 230 229 234 239 240 246 248 247 249 253 258 265 271 273 275 276 275 274 273 280 282 285 284 281
238 240 243 234 238 243 235 244 251 248 235 233 226 235 232 229 231 235 240 242 245 250 255 259 263 268 270 271 273 275 278 276 279 279 278 282 280 284
231 234 234 234 236 235 239 239 247 233 236 231 221 217 219 224 224 228 234 239 247 252 256 258 262 264 265 268 270 272 278 283 282 283 283 283 285 285
234 235 231 235 241 241 242 243 241 228 226 219 205 210 218 218 222 232 235 241 246 245 247 253 259 264 270 273 274 277 277 280 283 285 285 285 282 280
234 220 229 238 236 255 251 236 224 220 216 218 200 212 222 219 222 225 229 234 235 242 249 257 261 264 268 275 276 277 280 284 286 284 282 278 280 286
227 197 234 240 238 236 238 215 222 214 215 216 206 218 228 220 219 220 220 221 229 247 252 256 264 270 274 273 279 280 281 282 281 279 277 279 286 289
162 203 190 206 229 225 198 204 188 184 187 193 224 228 227 219 211 207 206 212 227 240 246 259 263 274 275 281 282 282 282 280 275 270 283 289 289 290
153 191 185 166 163 168 162 169 168 180 196 203 181 182 171 168 172 184 189 202 225 252 267 281 281 282 285 288 288 286 281 274 262 279 301 294 291 292
146 145 143 149 151 150 175 180 170 162 151 146 144 148 149 150 154 163 187 221 260 279 284 285 294 302 306 305 304 310 313 296 282 295 297 292 293 292
135 123 117 120 125 118 130 146 142 136 138 139 138 138 140 150 156 161 183 224 295 307 304 313 321 324 321 316 317 312 308 305 304 300 296 294 293 290
126 128 128 124 121 119 126 132 134 131 131 133 135 137 137 144 150 152 139 337 333 325 318 314 313 315 312 309 312 313 309 310 309 305 301 295 291 287
128 128 126 124 122 121 122 124 125 128 129 134 139 141 156 162 163 182 304 335 332 319 312 308 305 306 306 307 312 315 316 316 315 314 311 301 291 290
129 130 129 129 128 129 130 127 124 131 143 151 174 194 178 196 257 285 316 320 326 323 315 308 305 304 304 304 306 312 315 317 315 313 307 300 299 298
132 132 131 132 133 132 132 136 152 173 184 215 228 229 243 260 273 285 292 299 311 321 320 312 306 302 301 302 301 305 312 310 317 312 307 304 304 304
133 132 130 133 136 142 163 200 215 221 235 247 255 261 271 277 282 285 286 289 295 307 317 312 308 305 303 305 305 309 310 309 310 307 304 302 303 306
139 140 141 154 169 213 248 262 261 262 265 267 271 276 280 282 282 283 285 288 290 300 312 317 314 312 310 305 309 311 312 312 314 312 310 309 307 310
157 215 226 229 261 273 272 272 270 268 269 275 278 280 280 280 282 284 287 292 295 300 309 312 309 313 313 309 312 313 312 317 317 312 313 312 309 315
245 255 268 273 273 272 272 274 273 274 278 281 282 283 283 284 285 286 288 291 294 297 301 308 309 310 303 307 306 308 317 314 315 313 316 315 312 317
271 274 276 277 279 281 283 284 285 286 286 287 288 288 286 283 282 284 286 290 294 299 302 304 307 302 303 308 304 309 315 320 315 315 317 315 316 317
278 277 281 285 287 288 288 290 291 291 294 294 293 291 289 286 286 286 286 288 294 296 299 302 304 301 305 307 306 311 317 321 321 317 314 316 310 293
295 299 300 300 299 299 298 296 294 292 291 295 291 289 290 293 294 291 290 294 296 299 304 305 306 307 309 309 313 315 318 321 324 323 316 325 321 317